Brainerd, MN

12:25 AM CDT on August 24, 2017 (GMT -0500)
Brainerd-Crow Wing County Regional

Weather History for KBRD - October, 2013

Change the Weather History Date:

Wednesday, October 30, 2013

  Actual Average Record
Temperature  
Mean Temperature 40 °F -  
Max Temperature 44 °F 48 °F 69 °F (2008)
Min Temperature 35 °F 28 °F 13 °F (1988)
Degree Days  
Heating Degree Days 26    
Moisture  
Dew Point 38 °F    
Average Humidity 92    
Maximum Humidity 100    
Minimum Humidity 87    
Precipitation  
Precipitation 0.03 in - - ()
Sea Level Pressure  
Sea Level Pressure 29.90 in    
Wind  
Wind Speed 2 mph (ENE)    
Max Wind Speed 6 mph    
Max Gust Speed -    
Visibility 3 miles    
Events Fog , Rain    
Averages and records for this station are not official NWS values.
T = Trace of Precipitation, MM = Missing Value Source: NWS Daily Summary

Daily Weather History Graph

Daily Weather History Graph

Search for Another Location

Airport or City:

Trip Planner

Search our weather history database for the weather conditions in past years. The results will help you decide how hot, cold, wet, or windy it might be!

Date:

Astronomy

Oct. 30, 2013 Rise Set
Actual Time 7:55 AM CDT 6:04 PM CDT
Civil Twilight 7:24 AM CDT 6:35 PM CDT
Nautical Twilight 6:48 AM CDT 7:10 PM CDT
Astronomical Twilight 6:13 AM CDT 7:45 PM CDT
Moon 3:31 AM CDT (10/30) 4:01 PM CDT (10/30)
Length of Visible Light 11h 11m
Length of Day
10h 08m
Waning Crescent, 17% of the Moon is Illuminated
Oct 30
Waning Crescent
Nov 3
New
Nov 9
First Quarter
Nov 17
Full
Nov 25
Last Quarter

Hourly Weather History & Observations

Time (CDT) Temp. Windchill Dew Point Humidity Pressure Visibility Wind Dir Wind Speed Gust Speed Precip Events Conditions
12:46 AM 35.6 °F - 32.0 °F 87% 30.11 in 9.0 mi Calm Calm - N/A   Overcast
12:53 AM 35.1 °F - 33.1 °F 92% 30.15 in 9.0 mi Calm Calm - N/A   Overcast
1:17 AM 35.6 °F - 33.8 °F 93% 30.09 in 9.0 mi Calm Calm - N/A   Overcast
1:53 AM 36.0 °F - 33.1 °F 89% 30.13 in 8.0 mi Calm Calm - N/A   Overcast
2:53 AM 36.0 °F 33.3 °F 33.1 °F 89% 30.12 in 8.0 mi NNE 3.5 mph - N/A   Overcast
3:29 AM 35.6 °F 32.8 °F 33.8 °F 93% 30.06 in 8.0 mi ENE 3.5 mph - N/A   Overcast
3:53 AM 36.0 °F 33.3 °F 33.1 °F 89% 30.10 in 8.0 mi NE 3.5 mph - N/A   Overcast
4:05 AM 35.6 °F - 33.8 °F 93% 30.05 in 8.0 mi Calm Calm - N/A   Overcast
4:53 AM 36.0 °F 32.1 °F 33.1 °F 89% 30.08 in 7.0 mi NE 4.6 mph - N/A   Overcast
5:29 AM 35.6 °F 32.8 °F 33.8 °F 93% 30.03 in 7.0 mi ENE 3.5 mph - N/A   Overcast
5:53 AM 36.0 °F - 33.1 °F 89% 30.08 in 8.0 mi Calm Calm - N/A   Overcast
6:53 AM 35.1 °F 30.1 °F 33.1 °F 92% 30.06 in 6.0 mi ENE 5.8 mph - N/A   Overcast
7:53 AM 36.0 °F 32.1 °F 33.1 °F 89% 30.04 in 5.0 mi NE 4.6 mph - N/A   Overcast
8:14 AM 35.6 °F 32.8 °F 33.8 °F 93% 29.99 in 1.8 mi ENE 3.5 mph - N/A   Overcast
8:22 AM 35.6 °F - 33.8 °F 93% 29.99 in 1.0 mi Calm Calm - N/A   Overcast
8:29 AM 35.6 °F - 33.8 °F 93% 29.99 in 0.8 mi Calm Calm - N/A   Overcast
8:53 AM 36.0 °F 33.3 °F 34.0 °F 93% 30.03 in 0.5 mi SE 3.5 mph - N/A Fog Fog
9:53 AM 37.0 °F 34.5 °F 35.1 °F 93% 30.02 in 0.5 mi Variable 3.5 mph - N/A Fog Fog
10:29 AM 37.4 °F - 35.6 °F 93% 29.98 in 0.2 mi Calm Calm - N/A Fog Fog
10:44 AM 37.4 °F 34.9 °F 35.6 °F 93% 29.98 in 0.5 mi SE 3.5 mph - 0.01 in Fog , Rain Light Rain
10:53 AM 39.0 °F - 37.0 °F 93% 30.01 in 0.8 mi Calm Calm - 0.01 in   Overcast
11:00 AM 39.2 °F - 37.4 °F 93% 29.97 in 1.0 mi Calm Calm - N/A   Overcast
11:31 AM 39.2 °F 37.0 °F 37.4 °F 93% 29.95 in 1.5 mi NE 3.5 mph - 0.00 in   Overcast
11:38 AM 39.2 °F 37.0 °F 37.4 °F 93% 29.94 in 0.8 mi NE 3.5 mph - 0.00 in Rain Light Rain
11:53 AM 39.0 °F 36.8 °F 37.0 °F 93% 29.97 in 0.8 mi NE 3.5 mph - 0.01 in Rain Light Rain
12:09 PM 39.2 °F 35.9 °F 37.4 °F 93% 29.91 in 1.0 mi NNE 4.6 mph - 0.00 in   Overcast
12:29 PM 39.2 °F 37.0 °F 37.4 °F 93% 29.90 in 1.8 mi NNE 3.5 mph - 0.00 in   Overcast
12:37 PM 39.2 °F 35.9 °F 37.4 °F 93% 29.89 in 2.0 mi North 4.6 mph - 0.00 in   Overcast
12:53 PM 41.0 °F 38.0 °F 39.0 °F 93% 29.92 in 2.0 mi NE 4.6 mph - 0.00 in   Overcast
1:33 PM 41.0 °F 39.0 °F 39.2 °F 93% 29.87 in 1.5 mi East 3.5 mph - N/A   Overcast
1:43 PM 41.0 °F 39.0 °F 39.2 °F 93% 29.87 in 1.0 mi ENE 3.5 mph - N/A   Overcast
1:53 PM 41.0 °F - 39.0 °F 93% 29.91 in 1.2 mi Calm Calm - N/A   Overcast
2:23 PM 42.8 °F 41.1 °F 39.2 °F 87% 29.86 in 1.8 mi SE 3.5 mph - N/A   Overcast
2:34 PM 42.8 °F 41.1 °F 39.2 °F 87% 29.85 in 1.0 mi SE 3.5 mph - N/A   Overcast
2:53 PM 43.0 °F 41.3 °F 41.0 °F 93% 29.88 in 1.0 mi SE 3.5 mph - 0.01 in Rain Light Rain
3:01 PM 42.8 °F 41.1 °F 39.2 °F 87% 29.84 in 2.0 mi SE 3.5 mph - 0.00 in Rain Light Rain
3:15 PM 42.8 °F 41.1 °F 39.2 °F 87% 29.83 in 1.5 mi SSE 3.5 mph - 0.00 in Rain Light Rain
3:32 PM 42.8 °F - 41.0 °F 93% 29.82 in 1.0 mi Calm Calm - 0.00 in Rain Light Rain
3:53 PM 43.0 °F - 41.0 °F 93% 29.83 in 1.2 mi Calm Calm - 0.00 in   Overcast
4:03 PM 42.8 °F 41.1 °F 41.0 °F 93% 29.79 in 1.8 mi ENE 3.5 mph - N/A   Overcast
4:10 PM 44.6 °F 43.1 °F 41.0 °F 87% 29.79 in 2.5 mi East 3.5 mph - N/A   Overcast
4:24 PM 42.8 °F 41.1 °F 41.0 °F 93% 29.79 in 3.0 mi East 3.5 mph - N/A   Overcast
4:39 PM 42.8 °F - 41.0 °F 93% 29.79 in 2.5 mi Calm Calm - N/A   Overcast
4:53 PM 43.0 °F - 41.0 °F 93% 29.82 in 2.5 mi Calm Calm - N/A   Overcast
5:16 PM 42.8 °F - 41.0 °F 93% 29.78 in 1.5 mi Calm Calm - N/A   Overcast
5:23 PM 42.8 °F - 41.0 °F 93% 29.78 in 1.2 mi Calm Calm - N/A   Overcast
5:53 PM 43.0 °F - 41.0 °F 93% 29.81 in 0.8 mi Calm Calm - N/A   Overcast
6:21 PM 42.8 °F 41.1 °F 41.0 °F 93% 29.76 in 1.0 mi NE 3.5 mph - N/A   Overcast
6:28 PM 42.8 °F 40.1 °F 39.2 °F 87% 29.75 in 0.8 mi NE 4.6 mph - 0.00 in Rain Light Rain
6:53 PM 43.0 °F - 41.0 °F 93% 29.79 in 0.8 mi Calm Calm - 0.00 in Rain Light Rain
7:53 PM 43.0 °F 41.3 °F 41.0 °F 93% 29.79 in 0.8 mi South 3.5 mph - 0.00 in   Mist
8:21 PM 42.8 °F - 41.0 °F 93% 29.75 in 1.0 mi Calm Calm - N/A   Overcast
8:41 PM 42.8 °F - 42.8 °F 100% 29.74 in 0.8 mi Calm Calm - N/A   Overcast
8:53 PM 43.0 °F - 41.0 °F 93% 29.77 in 0.8 mi Calm Calm - N/A   Overcast
9:53 PM 43.0 °F - 41.0 °F 93% 29.74 in 0.5 mi Calm Calm - N/A Fog Fog
10:17 PM 42.8 °F - 41.0 °F 93% 29.70 in 0.2 mi Calm Calm - N/A Fog Fog
10:29 PM 42.8 °F - 41.0 °F 93% 29.71 in 0.5 mi Calm Calm - N/A Fog Fog
10:37 PM 42.8 °F - 41.0 °F 93% 29.71 in 0.2 mi Calm Calm - N/A Fog Fog
10:53 PM 43.0 °F - 41.0 °F 93% 29.74 in 0.2 mi Calm Calm - N/A Fog Fog
11:53 PM 43.0 °F - 41.0 °F 93% 29.71 in 0.2 mi Calm Calm - N/A Fog Fog